Theta_e
319 320 322 323 321 325 332 332 340 341 340 345 342 342 344 343 344 343 339 340 340 331 334 332 326 330 330 331 331 334 334 328 329 329 327 322 317 318 316 313 319 323 323 324 326 324 323 326 328 327 326 325 324 323 323 323 323 322 322 321 321 319 319 320 322 322 321 321 321 320 318 318 320 320 318 317 317 316 317 317 316 316 316 317 318 318 318 319 318 316 315 315 315 313 312 311 311
320 323 325 326 324 330 340 334 341 344 341 344 342 343 345 342 341 343 339 337 338 331 332 328 327 330 331 336 332 330 328 323 323 323 319 316 316 317 315 314 316 320 323 323 324 325 322 324 328 327 326 325 324 323 322 322 322 321 321 321 321 320 319 320 321 321 321 320 320 319 318 318 319 320 318 316 317 317 317 316 316 315 316 317 317 318 318 319 318 316 314 315 314 312 311 311 310
322 326 326 327 327 331 338 333 341 345 342 345 343 343 343 343 343 344 341 335 335 332 331 328 329 328 329 334 326 322 321 317 316 319 317 313 317 315 315 315 314 317 322 323 323 325 321 323 328 327 326 325 324 323 322 322 321 321 320 321 320 320 319 319 320 322 321 319 320 320 318 318 319 319 317 316 316 317 317 316 315 314 315 317 317 318 319 319 317 315 314 314 314 313 311 311 310
322 325 325 327 329 332 335 336 342 343 342 343 342 344 342 345 344 342 341 336 333 330 328 328 328 324 323 324 320 319 315 315 312 314 316 311 314 314 313 315 315 315 320 323 321 324 322 322 327 327 325 324 324 323 322 321 321 321 320 320 320 320 319 319 319 320 320 319 319 319 319 317 317 317 316 316 315 316 317 316 315 314 315 316 317 318 319 319 317 315 314 315 314 313 311 310 309
322 324 325 327 331 334 336 339 342 342 343 341 341 340 334 338 337 332 332 333 330 326 326 325 324 321 321 316 316 316 309 313 312 309 312 310 311 312 312 313 314 315 317 321 320 322 323 322 325 326 325 324 323 323 322 321 320 320 320 320 320 320 319 319 318 318 319 319 319 318 319 318 316 316 316 315 315 315 316 315 314 315 314 315 318 319 319 319 317 315 314 315 315 313 312 310 309
323 324 325 325 329 332 334 339 341 341 341 338 339 333 326 327 325 325 326 328 329 327 327 322 319 320 317 311 310 310 306 310 310 307 308 309 309 310 311 311 313 314 315 318 320 321 323 323 323 325 325 323 323 322 322 321 321 320 320 319 320 319 318 319 318 317 318 318 318 318 317 317 316 316 316 315 314 315 315 314 313 314 314 314 317 318 318 319 317 315 314 315 315 313 311 310 308
324 325 326 328 328 329 335 339 340 341 335 329 329 325 322 321 322 327 324 323 326 326 327 321 319 319 316 311 310 307 304 305 306 306 306 308 309 309 310 311 312 313 314 316 318 321 323 325 323 324 325 324 323 322 321 321 321 320 319 319 320 319 318 318 318 317 317 317 318 318 317 316 316 316 316 315 314 315 314 312 313 313 313 314 315 316 317 318 317 315 314 315 315 313 311 310 308
323 325 330 332 331 332 337 339 338 338 328 318 320 321 322 321 321 323 320 318 317 319 321 320 322 322 316 313 311 306 304 304 304 305 306 307 308 309 309 310 313 313 314 316 317 319 322 325 324 324 325 324 323 322 321 321 321 320 320 319 319 319 318 318 318 317 317 317 318 318 317 316 316 315 315 314 314 314 313 312 313 313 313 314 314 315 316 317 316 314 314 314 315 314 312 310 308
322 323 328 330 331 332 335 337 335 331 319 313 316 318 319 320 319 319 319 316 314 314 312 313 319 322 317 312 309 305 303 303 303 305 306 307 308 309 309 310 313 313 314 317 319 318 322 325 325 325 325 324 323 322 321 321 321 320 320 319 319 318 318 318 318 317 317 318 317 317 317 316 316 315 315 314 313 314 313 312 312 313 312 313 314 314 316 316 316 314 314 313 315 314 312 310 308
321 320 325 326 328 330 330 332 329 322 314 312 314 313 313 316 319 318 317 313 312 315 309 309 315 315 314 311 308 305 302 302 303 305 305 306 308 309 310 310 312 312 313 317 321 321 322 325 325 325 324 324 323 322 321 321 321 320 319 318 319 318 318 318 318 317 316 316 316 317 316 316 317 315 314 314 314 313 312 312 312 312 312 312 313 314 315 315 315 314 314 313 314 314 313 311 309
322 321 322 323 325 328 329 328 323 316 312 313 314 313 312 313 317 316 316 312 308 312 309 309 313 311 310 308 306 304 301 302 303 303 305 306 308 309 310 311 310 311 313 315 320 323 323 323 324 324 324 324 323 322 321 321 320 320 320 319 319 318 318 318 318 317 316 316 316 317 316 315 316 315 315 314 314 313 312 312 311 312 312 312 313 313 314 314 314 313 313 313 313 314 314 311 309
325 327 322 321 325 327 329 325 318 314 312 313 313 313 311 313 316 314 313 311 308 311 309 307 308 309 310 307 305 302 301 301 301 303 304 305 306 307 309 309 309 310 310 311 314 319 322 323 322 321 322 323 322 321 321 321 320 320 320 319 319 318 318 318 318 318 316 315 316 316 316 315 315 315 316 315 314 313 312 311 311 311 311 311 313 313 313 314 314 313 313 313 312 314 314 312 310
323 326 319 322 328 324 323 322 318 317 314 314 312 312 312 312 314 311 309 307 308 312 308 304 305 307 307 305 303 301 300 300 301 302 303 303 304 306 307 307 307 307 307 308 308 310 315 320 321 320 320 321 322 322 321 320 320 320 320 319 319 319 318 318 317 318 317 316 316 316 316 315 315 315 316 315 315 314 312 312 311 310 310 311 312 312 313 313 314 313 313 312 312 313 313 313 311
319 321 316 321 327 320 318 319 319 318 313 313 312 312 312 312 311 309 308 306 305 307 305 302 303 307 306 305 304 300 299 300 300 302 301 302 303 304 304 304 304 304 304 305 305 305 307 311 314 318 319 320 320 320 320 320 320 320 320 320 319 319 318 318 317 318 318 316 316 316 316 315 315 315 315 315 314 313 313 312 311 310 310 310 311 312 312 313 313 314 313 312 312 312 312 313 311
317 321 316 318 322 319 319 316 315 316 312 311 311 312 311 311 311 309 308 307 303 303 304 303 302 306 305 304 304 299 298 299 299 300 300 301 301 301 301 301 302 301 302 302 303 303 303 304 306 310 313 316 318 319 319 318 318 319 319 319 319 319 318 318 317 317 318 317 316 316 316 315 314 314 314 314 313 313 313 312 311 311 311 310 310 311 312 313 313 313 313 312 312 312 312 312 311
319 321 317 317 321 320 318 314 314 319 314 309 309 314 312 308 310 309 306 305 303 302 303 302 302 303 302 301 301 298 297 297 298 299 299 299 299 299 299 299 299 298 299 299 300 300 301 302 302 304 306 308 313 317 319 318 318 317 317 317 317 317 317 318 317 317 317 317 317 316 316 316 315 314 313 313 313 313 312 312 311 311 311 310 310 311 311 312 313 313 313 312 312 312 312 312 311
323 322 317 317 320 317 315 313 315 317 314 310 310 315 315 307 307 305 303 303 302 301 301 301 300 300 300 299 299 297 297 296 297 297 297 297 297 297 297 297 297 297 296 296 297 297 298 299 300 301 303 304 306 310 313 315 318 318 318 317 316 315 315 316 317 317 316 316 316 316 316 315 315 315 314 313 312 312 312 312 311 310 311 311 311 311 311 311 312 313 313 312 311 311 311 311 310
321 319 316 319 320 316 313 311 311 312 310 309 308 311 314 309 305 305 304 303 301 301 300 299 299 298 298 298 298 297 296 296 296 296 296 296 296 296 296 295 296 296 296 295 295 295 296 296 297 299 301 302 303 305 307 308 311 315 318 318 317 316 315 314 315 316 316 315 315 316 315 315 315 315 314 313 312 312 312 313 311 310 310 310 311 311 311 311 311 312 312 311 310 309 309 310 309
317 315 315 320 319 314 311 309 309 308 308 309 308 307 309 307 305 306 307 304 302 302 300 299 298 297 297 297 297 297 296 295 295 295 295 295 295 295 295 295 295 295 295 295 294 294 295 294 294 295 297 300 302 303 304 305 305 308 311 314 317 317 316 315 314 315 315 315 314 315 315 315 315 314 314 313 312 312 312 312 311 310 309 309 310 311 311 310 311 311 311 310 309 308 308 309 308
316 314 315 317 314 310 309 308 309 308 308 308 307 306 306 305 305 305 305 304 302 302 301 300 298 297 297 296 296 296 296 295 295 295 294 294 295 294 294 294 294 294 294 294 294 293 294 294 293 293 294 296 299 301 302 303 303 304 305 307 311 314 316 316 315 314 315 315 314 314 314 315 315 315 314 314 312 312 311 311 311 310 309 309 309 310 311 310 310 310 310 310 309 309 308 308 307
315 315 314 313 310 310 308 307 309 309 309 308 306 306 305 303 303 303 305 307 303 300 301 300 298 297 297 296 295 296 295 295 295 294 294 294 294 294 294 294 294 294 293 293 294 294 293 293 293 293 292 293 294 296 299 301 302 303 303 303 305 307 311 314 316 316 315 314 314 313 313 314 315 315 315 314 313 312 312 311 311 310 309 309 308 309 310 310 310 310 310 310 309 309 308 307 306
316 314 311 310 309 309 307 307 310 309 310 311 307 306 305 302 302 302 306 310 304 300 301 300 298 297 297 296 295 295 294 294 294 294 294 294 294 294 294 294 294 294 293 293 293 293 293 293 293 293 292 292 292 292 294 295 298 299 300 302 303 303 304 307 311 314 316 315 314 313 313 313 314 315 315 314 314 313 312 311 310 310 310 309 308 309 310 310 309 309 309 309 309 309 308 307 306
317 315 310 309 309 308 307 308 309 309 310 312 308 305 304 303 302 301 303 306 302 301 301 300 298 296 296 295 295 294 294 293 293 294 293 294 294 294 294 294 294 294 294 293 293 293 293 293 293 293 292 292 292 292 292 292 293 294 295 298 301 302 303 303 304 308 312 315 315 314 313 313 313 314 315 314 314 313 313 311 310 310 310 310 309 308 309 310 309 308 309 309 308 308 308 307 306
318 315 309 308 308 307 308 308 309 309 310 309 306 305 305 305 304 300 301 301 301 301 299 298 297 296 295 295 295 294 293 293 293 294 293 294 294 293 293 293 294 294 293 293 293 293 293 293 293 293 293 292 292 292 293 292 292 292 292 293 295 298 301 302 302 303 305 309 313 314 314 313 313 314 314 314 314 313 312 311 311 311 310 310 309 309 309 309 309 308 309 309 308 308 308 306 306
318 314 310 308 308 308 310 309 308 309 309 307 305 305 305 304 303 300 300 301 301 300 298 297 296 295 295 295 296 294 293 293 293 293 293 293 293 293 293 293 293 293 293 293 293 293 292 293 293 292 292 292 292 292 292 292 292 292 292 292 292 293 295 298 301 302 303 304 307 311 313 313 313 313 313 314 314 313 313 311 311 311 311 310 309 309 309 308 308 308 308 308 308 308 307 306 305
316 314 312 308 306 308 310 308 307 308 308 307 305 304 302 301 301 300 299 299 299 299 298 297 296 296 295 295 295 293 292 293 293 293 293 293 293 293 293 292 292 292 292 292 292 292 292 292 292 292 292 292 292 291 292 292 292 292 291 292 292 292 292 293 295 298 301 302 303 305 308 310 312 312 312 312 312 312 312 311 311 311 311 310 309 309 309 308 308 308 308 308 308 307 306 306 305
315 315 315 309 307 308 308 307 308 307 306 307 306 304 301 300 302 303 299 299 299 298 298 297 296 296 295 295 294 293 292 292 293 293 293 293 293 292 292 292 292 292 292 291 291 291 291 291 292 292 292 292 292 291 291 291 292 292 292 291 291 291 291 292 292 293 296 299 302 303 303 305 307 310 312 311 310 311 311 311 311 311 311 311 309 309 308 308 307 308 307 307 307 307 306 305 304
314 313 312 312 310 307 307 307 307 308 306 307 306 304 301 299 303 304 300 299 299 298 298 297 296 295 294 294 294 292 292 293 293 292 292 292 292 292 292 291 291 291 291 291 291 291 290 290 291 291 291 291 291 291 291 291 292 292 291 291 291 291 291 291 291 291 292 294 297 301 302 302 303 305 308 310 310 311 311 310 310 309 310 310 310 309 308 308 307 307 307 307 307 306 306 305 304
314 310 311 317 316 309 307 307 307 307 307 307 306 305 303 302 303 302 299 299 299 298 298 298 296 295 294 294 294 293 292 292 293 292 292 292 291 291 291 291 290 290 290 290 290 290 290 289 290 290 290 291 291 290 290 291 291 291 291 291 291 291 291 292 292 291 292 293 294 296 300 302 302 302 303 305 308 310 311 310 310 309 309 309 309 309 308 308 307 307 306 306 306 306 305 305 304
312 311 314 318 318 313 309 307 306 306 306 307 308 306 307 306 302 299 299 300 299 298 298 298 297 295 294 294 294 293 292 292 292 292 292 291 291 291 291 291 290 290 290 290 289 289 289 289 289 289 290 290 290 290 290 290 291 291 291 291 291 291 291 292 293 292 292 294 296 296 297 299 301 302 302 302 304 306 309 310 310 310 309 308 308 308 308 308 307 307 306 305 305 305 305 304 304
311 316 321 314 311 311 307 307 308 306 307 308 307 307 307 305 301 299 300 300 298 298 298 298 297 296 295 294 293 294 292 291 292 292 291 291 291 291 291 290 290 290 290 289 289 289 289 289 288 288 289 289 289 289 289 289 290 291 291 291 291 291 291 292 293 293 292 293 295 297 297 298 299 300 301 301 301 303 306 309 310 310 310 309 308 308 308 307 307 307 306 305 304 304 304 304 303
315 315 319 314 308 308 307 308 309 306 307 307 306 308 309 306 302 299 299 299 298 298 298 297 297 296 295 294 293 293 293 292 292 292 291 291 291 291 291 290 290 290 290 289 289 289 289 288 288 288 288 288 288 288 288 289 290 291 291 291 291 291 291 291 292 293 292 292 292 294 297 298 299 299 299 300 300 301 302 306 309 310 310 309 308 307 307 307 307 306 306 305 304 303 303 303 302
318 311 310 311 308 309 309 308 310 310 309 308 306 307 308 306 301 298 299 299 298 298 297 297 297 296 295 294 293 293 293 293 292 292 292 291 291 291 290 290 290 290 289 289 289 289 288 288 288 288 288 288 288 288 288 288 289 290 291 291 291 291 291 291 292 292 292 292 292 293 295 296 297 298 298 299 299 300 300 302 305 308 309 309 309 307 306 306 306 305 305 305 304 303 302 302 301
313 311 310 310 308 309 307 304 309 311 308 307 306 305 305 304 301 298 298 299 298 298 297 297 297 296 295 295 294 294 293 293 292 292 292 291 291 291 290 290 290 290 289 289 289 288 288 288 288 287 288 287 287 287 288 288 288 289 290 291 291 291 291 291 291 291 290 291 291 292 293 294 294 295 297 297 298 298 299 300 301 304 307 308 308 308 306 306 305 305 304 304 304 303 302 301 301
309 309 310 310 310 309 304 301 305 306 305 306 307 306 305 303 300 298 298 299 298 298 297 297 297 296 295 295 294 294 293 293 293 292 292 291 291 291 290 290 290 289 289 289 288 288 288 288 287 287 287 287 287 287 287 287 288 289 290 291 291 291 290 290 290 290 289 290 290 291 292 292 293 293 295 296 297 297 297 298 299 300 303 305 307 307 307 305 304 304 304 303 303 303 302 301 301
307 308 309 311 312 309 303 301 302 304 304 307 307 306 304 303 301 298 298 298 298 298 297 296 296 295 295 295 294 294 293 293 292 292 291 290 290 290 289 289 289 288 288 288 287 287 287 287 287 287 287 287 287 287 287 287 287 288 290 290 290 290 290 290 289 289 289 289 289 290 291 292 292 292 293 294 295 295 295 296 297 298 300 302 304 306 306 306 304 302 303 303 302 302 302 301 300
305 309 310 312 310 304 301 300 301 305 304 304 304 303 301 301 302 300 298 298 298 297 297 296 295 294 294 294 295 294 293 293 292 291 290 289 288 288 288 287 287 287 287 287 287 287 287 287 287 287 287 287 287 287 287 287 287 288 289 289 289 289 289 289 289 289 289 289 289 289 289 290 290 291 291 292 293 294 294 294 295 297 298 299 301 303 304 305 304 302 301 302 302 301 300 300 299
305 310 309 308 305 300 299 300 301 304 303 301 301 301 301 301 302 301 298 297 298 297 296 295 294 294 294 294 295 294 293 292 290 288 288 287 287 287 287 286 286 286 286 286 286 286 287 287 287 287 287 287 287 287 287 287 287 288 289 289 289 288 288 288 288 288 288 288 289 289 289 289 289 290 290 291 292 293 294 294 294 295 296 297 298 300 301 303 303 302 301 300 301 301 300 299 298
304 308 307 305 303 300 300 301 302 302 301 302 301 300 301 301 302 300 297 297 297 296 295 294 293 293 294 294 294 293 292 291 289 287 287 287 287 286 286 286 285 286 286 286 286 286 287 287 287 287 287 287 287 287 287 287 287 288 288 288 288 287 287 287 287 287 287 288 288 289 289 289 289 289 289 291 292 294 294 294 294 294 294 295 296 297 299 300 301 302 300 299 299 299 299 297 296
302 304 304 303 302 300 300 301 300 300 301 302 302 301 302 304 302 297 296 297 295 295 295 295 295 294 294 293 292 291 290 289 288 287 286 286 286 285 285 285 285 285 286 286 286 286 286 286 287 287 287 287 287 287 287 287 287 287 288 288 287 287 287 287 287 287 287 287 288 288 289 289 289 289 289 289 291 293 294 294 293 293 293 293 294 295 296 297 299 300 300 299 298 297 297 295 295
304 303 303 302 303 301 300 300 300 300 302 303 303 302 304 307 304 297 296 296 294 294 295 294 295 295 294 293 291 290 289 288 287 286 286 285 285 285 285 285 285 285 286 286 286 286 286 286 286 286 286 286 286 287 287 287 287 287 288 288 287 287 286 286 286 286 287 287 287 287 288 288 288 289 289 289 289 291 292 292 292 293 292 292 293 293 294 295 297 298 299 299 298 297 296 295 293
305 306 305 303 303 302 301 301 300 300 302 304 304 304 304 305 303 298 295 296 295 295 295 294 294 294 293 291 289 288 288 287 286 286 285 285 285 285 285 285 285 285 285 285 285 286 286 286 286 286 286 286 286 286 286 287 287 287 288 287 287 287 286 286 286 286 286 286 287 287 287 288 288 288 289 289 289 289 290 290 290 291 292 292 292 292 293 294 295 296 297 298 298 297 296 295 293
303 306 305 304 304 302 301 301 300 301 301 303 303 302 300 299 300 300 296 295 295 294 294 293 292 293 292 290 288 287 287 286 286 285 285 285 285 285 285 285 285 285 285 285 285 285 286 286 286 286 286 286 286 286 286 286 286 287 287 287 287 286 286 286 286 286 286 286 286 287 287 287 288 288 288 288 288 289 289 289 289 290 291 291 292 292 292 292 293 294 295 296 297 297 297 295 293
303 305 304 304 304 302 302 300 299 300 300 303 303 299 297 297 299 301 297 296 296 294 293 293 292 292 290 288 287 287 286 285 285 285 285 284 284 284 284 285 284 284 285 285 285 285 285 286 285 286 285 285 285 285 285 285 285 286 286 286 286 286 286 285 285 285 285 286 286 286 287 287 287 287 288 288 288 288 288 289 289 289 290 290 291 292 292 292 292 293 294 295 295 295 296 295 294
305 306 305 305 305 303 301 299 299 300 300 305 303 297 297 297 296 298 297 296 296 294 293 292 291 290 288 287 286 287 286 285 285 285 285 285 285 284 284 284 284 284 284 284 284 285 285 285 285 285 285 285 285 285 285 285 285 285 285 285 285 285 285 285 285 285 285 285 286 286 286 287 287 287 287 288 288 288 289 289 289 289 289 290 291 291 292 292 292 292 292 293 294 294 294 295 294
306 307 305 303 302 301 298 299 301 300 303 308 301 295 297 296 295 298 299 298 296 294 293 292 291 288 287 287 286 286 286 285 285 284 285 284 284 284 284 284 284 284 284 284 284 285 285 285 285 285 285 284 284 285 285 285 285 285 285 285 285 285 285 285 285 285 285 285 285 286 286 286 287 287 287 287 288 289 289 289 289 289 289 290 290 291 291 292 292 292 292 292 293 293 293 294 294
303 304 301 298 298 299 298 299 300 298 302 306 298 294 296 295 296 299 300 299 297 294 292 291 289 287 286 287 286 286 285 285 285 284 284 284 284 284 283 283 283 283 284 284 284 285 285 285 285 284 284 284 284 284 284 284 284 284 283 283 283 283 283 284 284 284 284 284 285 285 286 286 287 287 287 287 288 288 288 289 289 289 289 290 290 290 291 291 291 291 292 292 292 292 293 293 293
301 301 297 296 296 298 299 300 300 297 299 300 296 294 295 295 297 299 297 297 296 293 290 288 287 286 286 286 286 286 285 284 284 284 284 284 283 283 283 283 283 283 284 284 284 285 284 284 284 284 283 283 283 283 283 283 282 282 281 281 281 282 282 282 283 283 284 284 285 285 286 286 286 287 287 287 287 288 288 288 289 289 289 289 289 290 290 291 291 291 291 291 292 292 292 292 292
300 299 297 297 297 298 298 297 298 297 296 296 295 294 294 294 297 299 297 295 295 292 288 287 286 285 285 285 285 285 285 284 284 283 283 283 283 283 283 283 283 283 283 283 284 284 284 284 284 283 283 282 283 283 283 282 281 280 280 280 281 281 281 281 281 282 283 284 284 285 285 285 286 286 286 287 287 287 287 288 288 288 289 289 289 289 289 290 291 291 291 291 291 292 292 292 292
300 299 298 297 297 297 298 297 297 297 295 295 295 294 295 294 295 298 298 295 294 290 287 286 286 285 285 285 285 285 284 284 283 283 283 283 282 282 282 283 283 283 283 283 284 284 284 283 283 282 282 282 283 283 282 281 280 280 280 279 279 279 279 280 280 281 281 282 283 284 284 285 285 286 286 286 287 287 287 287 288 288 289 289 289 289 289 289 290 290 290 291 291 291 292 291 291
300 299 299 298 297 298 298 298 297 296 295 294 293 294 296 295 294 297 297 294 292 288 286 286 285 285 285 284 284 284 283 283 283 283 283 282 282 282 282 282 283 283 283 283 283 283 283 283 282 282 282 282 283 283 282 280 280 279 279 278 278 278 278 278 278 279 280 280 281 282 283 284 285 285 286 286 286 286 287 287 287 288 288 288 288 289 289 289 289 290 290 290 290 291 291 291 291
300 300 301 300 298 298 298 298 296 295 296 295 293 294 295 294 294 296 294 291 289 287 286 285 284 284 284 284 284 283 283 283 282 282 282 282 282 282 282 282 282 282 283 283 283 283 283 282 282 281 281 282 283 282 281 279 279 279 278 278 278 277 277 277 277 278 279 280 280 281 282 283 284 285 285 286 286 286 286 287 287 287 288 288 288 288 289 289 289 289 290 290 290 290 290 290 291
302 301 300 299 298 296 297 298 296 294 295 294 293 294 293 292 293 293 290 288 287 286 285 284 284 284 283 283 283 283 282 282 282 282 282 281 282 282 282 282 282 282 282 283 283 282 282 282 281 281 281 282 282 281 280 279 278 278 277 277 277 276 276 276 277 278 279 279 279 279 281 283 284 284 285 285 286 286 286 286 287 287 287 288 288 288 288 288 288 288 289 289 289 289 289 290 290
301 299 298 299 299 297 296 296 296 295 294 294 293 293 292 292 292 291 288 287 286 285 284 284 283 283 282 282 282 282 282 282 282 282 281 281 281 281 282 282 282 282 282 282 282 282 281 281 280 281 281 282 282 280 279 278 278 277 277 276 276 276 276 276 277 278 278 278 277 278 280 282 283 284 284 285 285 286 286 286 287 287 287 287 287 287 287 288 288 288 288 289 289 289 289 289 289
299 298 299 301 301 299 297 295 295 295 294 294 293 293 292 292 292 290 287 285 285 284 284 283 283 282 282 282 281 281 282 281 281 281 281 281 281 281 281 282 282 282 282 281 281 280 280 280 280 281 281 281 281 280 278 278 277 277 276 276 275 275 276 277 277 277 276 276 277 278 280 282 283 283 284 284 284 285 286 286 286 287 287 287 287 287 287 288 288 288 288 289 289 289 289 289 289
299 299 299 301 300 298 297 295 295 295 295 294 293 292 292 291 290 287 285 285 284 284 283 282 282 282 281 281 281 281 281 281 280 280 281 281 281 281 281 281 281 281 281 280 280 280 280 280 280 280 280 281 280 279 277 277 276 276 275 275 275 275 276 277 276 275 275 276 277 279 280 282 283 283 284 284 284 285 285 285 286 286 287 287 287 287 287 287 288 288 288 289 289 289 289 289 289
298 298 298 300 299 297 296 295 295 295 294 293 293 292 292 291 288 286 285 284 284 283 282 282 281 281 281 281 281 281 280 280 280 280 280 280 280 280 280 280 280 280 280 279 279 279 279 279 279 279 279 279 278 277 276 276 276 275 275 275 275 276 276 276 275 274 274 275 277 279 280 282 283 283 284 284 284 285 285 285 285 286 286 286 287 287 287 287 287 288 288 288 288 288 288 288 288
296 297 297 299 299 297 297 296 295 294 294 293 293 292 292 290 288 285 285 284 283 283 282 281 281 280 280 280 280 280 280 280 280 280 280 280 279 279 279 279 279 279 279 278 278 278 278 278 278 278 278 278 277 276 275 275 275 275 274 274 275 276 275 274 274 273 274 275 278 279 280 281 282 283 284 284 284 284 285 285 285 286 286 286 286 287 287 287 287 287 287 288 288 288 288 288 288
Wind_Speed
5 5 4 2 4 2 2 2 1 1 2 2 3 2 3 3 4 3 3 4 3 2 4 3 1 0 1 1 3 3 1 0 2 1 0 2 10 11 13 15 7 3 3 5 6 9 15 18 17 16 15 14 14 13 12 11 11 12 11 12 11 11 11 10 11 12 12 12 12 11 10 10 12 12 11 11 11 10 11 11 11 12 11 11 12 13 12 12 13 11 11 11 11 10 11 11 11
6 6 4 3 3 2 1 2 1 1 1 3 3 4 3 2 3 3 5 5 5 3 4 2 2 2 3 3 3 2 5 7 6 3 3 9 10 10 14 15 9 1 2 4 5 6 12 17 18 15 15 14 13 13 12 12 12 12 12 12 12 11 12 11 11 11 12 12 12 11 10 11 12 12 11 11 11 11 11 11 11 12 12 11 13 13 12 13 13 12 11 11 11 11 11 11 11
7 6 4 4 4 2 1 1 1 1 2 3 4 3 1 3 4 5 6 6 7 5 3 2 3 2 4 5 3 3 4 9 12 3 3 14 10 12 17 13 12 7 0 3 3 4 9 16 19 15 15 13 13 13 12 12 11 12 12 12 12 12 12 12 12 13 13 11 12 11 11 12 12 12 12 12 11 12 12 11 11 12 13 13 13 14 13 14 13 12 11 11 12 12 11 11 11
8 7 4 3 2 0 1 1 2 2 2 3 3 3 2 4 5 6 6 6 6 4 3 2 2 1 2 3 3 4 5 5 12 10 2 13 13 14 18 14 13 10 3 2 3 4 7 14 18 15 15 13 12 12 12 12 11 12 12 12 12 12 13 13 13 13 13 12 13 12 12 11 12 12 12 12 12 13 12 12 12 12 13 13 14 14 14 15 13 12 11 12 13 13 12 11 11
8 6 5 3 2 0 1 1 1 3 3 4 2 2 1 3 4 2 1 3 4 5 4 3 1 3 3 4 4 4 6 6 10 18 8 15 20 17 18 16 13 11 6 2 3 4 7 11 16 15 15 13 12 12 11 11 11 11 11 11 12 13 13 14 13 13 14 14 13 12 12 12 11 12 12 12 12 13 13 13 13 13 13 12 14 15 15 15 13 13 12 14 14 13 12 11 11
5 4 5 3 1 1 1 1 2 2 5 4 2 1 0 1 3 3 4 3 4 6 5 4 1 1 4 5 6 6 7 7 8 18 17 19 22 18 18 18 15 12 10 3 3 4 7 9 14 16 15 13 12 11 11 11 10 11 10 11 12 12 12 14 14 13 14 14 13 12 13 13 11 12 13 13 13 13 13 13 13 13 13 13 15 14 15 15 14 13 13 14 14 13 13 11 10
3 2 2 1 1 0 2 3 4 4 4 1 4 2 1 0 2 5 6 3 4 6 5 2 1 4 4 3 6 8 16 16 9 16 22 19 20 19 16 16 16 13 13 5 3 3 6 8 12 15 15 14 12 11 11 11 10 10 10 11 12 12 11 13 13 13 13 13 14 13 13 13 12 13 13 13 13 14 13 13 14 14 14 15 15 14 14 15 14 14 14 15 14 14 13 12 11
5 2 1 3 1 1 2 5 5 3 2 2 5 4 3 1 2 5 5 3 3 4 5 3 2 6 2 4 5 5 19 24 17 19 24 22 21 19 16 16 16 12 13 9 3 2 5 8 10 14 14 14 12 11 11 11 11 11 11 11 11 12 11 13 13 12 13 14 14 13 14 14 13 14 13 14 14 14 14 13 14 14 14 15 15 15 15 15 15 14 15 15 14 14 14 13 12
5 3 1 2 1 2 3 4 4 1 2 1 4 2 2 3 4 5 3 5 3 4 6 6 3 4 1 7 4 3 17 28 25 23 26 25 22 18 16 16 16 11 11 14 7 4 2 7 10 12 13 12 12 11 11 12 11 11 11 11 12 12 12 13 14 13 14 15 14 14 15 14 15 15 14 14 14 14 14 14 14 14 15 15 16 16 16 16 15 15 16 15 15 15 15 13 13
2 3 1 1 1 2 5 3 2 1 2 1 2 3 3 3 5 5 4 6 4 4 7 6 4 3 2 4 2 4 15 28 31 29 29 27 20 16 18 16 18 13 11 16 10 5 3 6 7 9 11 10 11 11 11 12 12 12 11 11 12 12 12 13 13 14 14 14 14 14 15 15 16 16 15 15 15 15 14 15 15 15 16 15 16 16 16 16 15 16 16 15 16 16 16 14 14
0 2 1 1 1 3 5 3 1 1 1 1 2 3 3 3 4 5 6 7 6 5 6 7 4 4 3 3 1 5 18 31 33 30 29 27 21 18 18 17 20 17 15 18 14 7 4 4 3 5 8 10 10 10 11 11 11 12 12 12 13 12 12 13 14 14 14 14 15 15 16 16 16 16 16 16 15 15 16 16 16 16 16 16 16 16 17 17 17 17 16 16 16 16 17 15 15
1 3 2 2 3 4 4 3 3 4 1 2 2 4 2 4 5 5 8 7 4 5 5 6 2 2 3 2 1 9 24 32 30 27 26 26 26 23 20 20 23 23 21 22 21 14 6 2 1 2 5 10 10 9 10 11 12 12 12 12 13 13 13 14 15 15 15 15 15 15 16 16 16 16 16 16 16 16 17 16 17 17 16 17 17 17 17 17 17 17 17 17 16 17 17 17 16
0 2 2 2 4 2 2 3 3 4 2 2 1 4 3 4 4 6 9 8 4 5 4 6 4 2 3 0 2 9 20 28 27 25 24 25 27 26 24 25 26 26 26 25 27 25 15 6 4 4 4 8 10 10 10 10 11 12 13 13 13 13 13 14 15 16 16 16 15 15 16 16 16 17 17 17 18 17 17 17 17 17 17 17 17 17 18 18 18 17 18 18 17 17 17 17 16
1 1 2 2 2 0 2 2 1 3 1 2 2 3 3 2 3 6 9 9 7 2 1 6 3 4 3 2 4 6 13 24 26 23 23 25 27 28 28 29 29 29 30 29 29 31 26 19 11 7 5 6 10 11 12 13 13 13 13 13 14 14 14 14 15 16 17 17 16 17 17 17 17 17 18 18 18 18 18 18 17 18 18 18 18 18 18 19 19 18 17 18 18 18 18 17 17
2 0 3 0 3 3 2 1 1 2 3 1 2 1 5 4 5 8 7 7 5 3 1 9 8 3 3 4 3 6 14 23 24 22 24 26 28 30 31 32 33 33 33 33 32 32 31 29 24 19 13 7 8 11 11 12 14 15 15 15 15 15 15 15 15 16 18 18 16 18 19 19 19 18 19 19 18 17 18 19 18 19 19 18 19 19 19 20 20 19 18 18 19 18 18 18 19
3 2 4 1 3 2 2 1 1 2 2 3 4 3 8 8 7 7 4 6 5 5 5 8 8 5 5 5 5 11 19 23 23 25 27 29 30 31 34 34 34 35 36 36 36 35 33 31 30 28 25 19 11 8 10 11 11 12 14 16 17 16 16 16 17 17 19 18 16 17 18 19 21 21 21 21 21 20 19 19 19 19 20 20 19 20 20 20 20 20 19 19 19 19 18 18 21
3 4 3 2 2 1 1 0 1 0 3 4 5 4 7 5 7 6 6 10 9 7 9 7 8 8 6 7 11 17 20 22 24 27 28 28 28 30 33 34 34 35 36 37 37 37 36 34 33 32 29 27 22 15 10 9 10 13 13 13 14 16 18 18 18 18 19 20 18 18 19 18 19 21 23 24 23 22 22 22 21 20 20 21 20 20 21 21 21 21 20 20 20 19 17 18 21
4 3 1 1 2 2 2 2 1 0 3 5 5 5 6 4 2 5 6 10 8 8 8 7 8 9 10 13 17 18 19 23 25 26 25 24 24 25 26 29 31 32 33 35 37 37 37 37 35 34 32 29 27 23 20 18 13 11 14 14 13 14 16 18 20 20 20 22 21 20 20 21 20 20 21 24 25 23 23 23 24 23 21 21 22 21 22 22 22 22 21 21 20 19 19 18 21
3 2 1 2 4 1 0 3 2 3 2 4 5 6 6 2 3 2 4 5 5 8 6 6 8 7 10 13 16 16 18 22 24 24 23 22 22 22 22 25 28 30 31 32 34 36 36 37 37 36 35 32 29 26 24 23 22 18 13 13 15 16 16 17 19 21 23 23 23 23 22 22 22 21 21 23 25 25 25 23 23 25 24 22 23 23 23 23 23 23 23 22 20 20 21 19 21
1 2 2 4 3 1 4 5 3 2 2 3 4 5 6 5 5 3 6 5 6 6 3 4 6 5 6 8 12 15 16 19 21 22 21 21 20 20 21 23 25 28 29 29 30 33 34 34 36 37 36 34 31 29 27 25 24 22 20 18 15 15 17 18 18 20 23 24 25 25 24 24 23 23 23 24 25 26 26 26 24 25 27 26 25 25 24 24 24 24 24 22 22 23 24 21 21
1 3 3 5 1 3 3 4 3 3 4 4 4 5 5 2 5 3 6 6 4 3 3 5 6 5 5 5 9 12 13 15 17 18 19 19 20 19 20 21 23 24 26 28 28 29 31 32 32 34 36 35 34 32 30 28 26 24 22 22 21 18 16 18 20 21 22 24 26 27 27 26 25 24 24 27 28 28 27 28 28 25 27 29 27 27 26 26 26 25 25 24 25 27 26 25 24
2 1 5 2 3 3 1 2 3 4 4 5 5 5 2 1 4 3 4 5 3 4 5 7 7 6 6 6 7 9 10 11 13 15 16 18 19 19 20 20 21 23 24 27 28 26 26 28 28 30 33 33 33 33 31 30 28 28 27 24 23 21 21 19 17 20 23 24 25 28 29 29 27 26 26 28 30 31 30 30 31 29 29 30 29 29 28 27 29 28 27 27 28 29 30 29 28
2 2 1 3 5 4 3 2 2 3 4 3 4 4 3 4 3 1 5 6 6 7 7 8 8 9 10 9 8 7 7 8 11 13 15 17 18 19 19 19 20 21 22 23 26 25 23 25 26 26 29 31 31 30 29 30 28 29 29 26 25 23 23 23 21 19 20 24 26 26 28 30 30 28 28 30 31 32 32 32 33 34 32 33 32 31 31 28 30 31 29 30 31 31 31 31 31
4 2 1 3 5 5 4 3 2 4 5 4 5 5 4 6 4 2 5 6 7 8 8 9 10 12 12 9 7 7 7 9 11 13 16 17 17 17 18 18 17 18 20 21 22 24 23 23 24 24 25 28 30 28 27 27 27 27 27 26 26 26 25 25 24 22 21 20 23 26 28 29 30 31 31 32 34 33 34 35 35 37 36 36 34 34 34 31 31 34 32 33 34 33 33 31 32
3 1 3 2 3 4 6 4 4 5 5 5 6 5 5 7 6 4 6 7 7 8 8 9 10 10 10 7 6 6 7 9 11 13 15 15 15 16 17 17 17 17 19 20 19 22 23 21 21 23 24 25 27 28 26 25 25 25 25 24 25 26 26 25 26 25 22 21 20 21 26 29 30 31 32 34 36 36 37 38 38 39 39 39 38 36 36 34 33 35 34 34 36 36 34 33 32
1 1 3 1 3 5 6 4 5 5 4 5 7 4 5 6 6 3 6 8 7 8 8 7 8 8 7 7 6 6 6 8 10 12 12 13 14 16 17 17 17 18 18 19 19 20 22 21 20 21 23 24 26 27 27 25 24 25 24 22 23 24 24 24 25 26 25 24 21 19 20 25 28 31 32 30 30 32 35 38 40 41 42 41 41 41 40 38 36 37 37 36 36 37 37 36 35
3 2 2 1 3 5 5 6 6 4 3 4 7 5 5 6 3 1 6 8 8 8 8 7 8 8 7 7 6 8 7 8 11 11 11 11 12 15 17 17 17 17 16 18 19 20 21 22 21 20 21 23 24 26 27 25 23 24 24 23 22 22 22 22 23 24 25 26 25 23 21 21 22 25 30 29 25 26 29 32 36 40 43 43 42 42 43 42 39 39 40 39 38 37 38 37 36
3 1 2 4 4 3 2 6 5 2 1 4 6 5 4 4 3 4 8 7 8 8 7 7 8 7 7 7 6 7 8 9 12 11 11 10 11 13 14 15 15 15 15 16 18 18 20 22 21 20 21 21 22 24 26 26 23 22 24 23 23 23 22 21 21 22 23 24 26 27 26 23 21 21 25 27 26 29 29 27 30 33 38 43 44 43 43 44 42 40 40 41 40 37 37 38 37
2 2 2 6 7 6 5 3 5 4 1 4 5 3 2 6 6 6 9 7 7 8 7 7 7 7 7 7 6 5 8 10 11 11 11 11 11 11 12 13 14 15 14 15 16 17 19 21 21 20 20 20 21 23 25 26 23 22 23 23 23 24 22 21 21 21 22 23 24 26 28 27 25 23 21 22 23 28 32 29 28 29 32 37 42 43 43 43 43 41 39 39 40 39 38 38 37
3 2 3 4 7 5 8 3 1 3 2 4 5 3 6 8 6 7 8 7 7 7 7 6 6 7 6 6 6 5 7 10 10 11 11 12 12 11 12 12 14 16 15 15 16 18 20 22 21 21 20 21 22 23 25 28 26 24 23 23 23 23 22 21 21 21 22 23 23 24 26 28 29 28 25 22 21 22 28 31 30 30 32 34 38 42 43 43 43 42 40 38 38 39 39 39 39
5 4 2 4 4 5 10 7 2 2 2 4 4 4 8 5 6 8 8 8 8 7 7 6 6 6 6 6 6 5 6 10 10 11 11 10 10 10 12 12 14 17 18 17 17 19 21 21 21 21 21 22 23 25 27 29 29 27 25 24 24 22 21 21 23 22 22 23 25 25 25 28 29 29 27 25 22 20 21 26 31 31 32 33 34 38 42 43 43 44 43 40 38 38 40 40 40
5 4 4 4 3 5 11 8 2 2 4 2 2 5 7 5 7 9 7 7 8 7 7 7 7 6 7 6 6 5 5 10 12 11 9 8 9 10 13 14 16 18 19 18 17 20 22 21 21 21 21 23 25 26 27 29 30 29 26 25 24 22 21 23 23 23 23 24 26 29 28 27 28 29 28 27 25 23 19 20 25 28 32 34 32 34 38 40 42 43 44 43 40 38 39 39 40
4 4 3 5 4 5 7 8 3 2 4 3 3 4 7 6 5 8 7 7 7 7 6 7 7 6 6 5 5 5 4 7 9 9 9 9 9 13 17 18 18 19 20 18 18 21 23 24 23 22 23 26 26 27 28 29 30 30 29 27 24 21 21 23 23 22 24 26 27 29 30 29 27 28 28 27 25 24 22 19 20 22 27 32 33 33 36 38 40 41 41 44 44 40 39 40 39
4 4 3 4 4 4 5 8 6 5 7 7 6 5 9 9 3 7 6 7 7 7 7 7 7 5 6 5 5 5 5 5 6 7 9 11 13 17 22 21 20 21 20 17 19 22 26 27 25 24 26 27 28 29 30 31 31 31 30 27 23 21 20 21 23 23 25 28 29 28 29 29 29 29 30 29 27 24 23 21 20 19 21 26 29 32 35 37 39 40 41 43 44 43 41 41 40
5 4 3 4 5 5 6 8 7 8 9 9 8 7 10 10 3 7 7 8 8 7 7 6 6 7 6 6 6 5 5 4 5 9 12 16 18 22 26 23 22 24 22 20 22 26 30 30 26 25 27 28 30 31 32 33 34 32 28 24 22 21 20 21 24 25 26 27 30 29 28 28 29 31 32 32 31 28 26 23 21 19 19 21 23 27 32 34 34 37 40 41 43 44 44 44 43
7 7 4 4 5 5 7 9 9 9 9 7 7 8 11 11 5 7 9 8 8 6 5 6 6 7 6 6 5 5 5 3 7 14 17 21 24 26 27 26 26 28 26 25 29 32 33 30 26 27 29 29 30 31 31 32 34 32 26 21 21 21 21 22 23 25 26 28 30 28 27 30 30 31 32 33 33 33 31 28 24 20 18 19 21 24 28 33 35 36 38 40 41 40 41 43 42
5 5 3 4 5 5 7 11 11 7 6 7 8 11 11 12 11 8 9 8 7 5 6 6 6 6 6 6 5 6 5 4 11 17 19 22 25 26 27 27 29 30 30 30 32 34 32 29 29 30 31 29 28 29 29 31 34 31 26 23 22 21 20 22 23 24 26 29 32 29 25 28 32 33 33 33 34 35 34 32 30 25 20 17 18 21 23 28 33 35 36 37 39 39 37 38 40
7 3 1 4 4 7 10 10 8 7 6 9 12 12 10 11 13 7 9 7 4 5 6 7 8 7 5 6 6 5 4 5 10 14 18 21 23 25 26 27 30 30 31 31 30 30 29 29 29 30 29 29 28 29 29 31 33 32 30 26 22 20 21 22 24 25 27 29 31 29 24 23 28 32 32 32 34 36 35 32 31 30 27 22 18 18 20 23 26 29 31 31 34 38 37 38 40
6 4 2 3 4 8 10 7 4 6 4 9 14 11 8 11 10 1 6 5 4 6 8 7 8 7 6 6 6 6 6 6 6 9 15 21 23 25 27 28 30 30 29 28 27 28 29 28 27 27 27 28 29 29 30 30 32 34 32 24 19 20 21 22 23 25 28 29 28 28 25 23 27 32 31 31 32 33 32 31 30 29 28 27 25 21 19 20 23 26 28 28 28 30 30 34 42
5 4 3 4 6 6 8 8 9 8 5 8 12 10 6 7 5 7 7 7 8 8 9 9 7 7 6 6 6 7 7 7 7 8 14 20 23 25 27 28 29 28 26 26 26 27 27 27 27 27 28 29 29 29 30 31 33 34 28 20 21 22 22 23 24 24 26 28 29 27 26 25 27 31 31 29 29 28 27 28 29 28 27 27 27 26 24 20 21 25 27 28 27 25 22 25 38
5 2 1 5 9 8 9 11 12 11 6 4 6 8 5 3 3 6 5 8 9 8 9 9 7 7 7 7 6 7 7 8 9 10 13 19 22 24 26 28 28 26 25 25 26 26 27 27 28 29 29 29 29 29 31 31 32 31 25 23 25 25 25 25 23 23 25 26 28 29 28 27 26 28 30 29 26 25 25 26 27 28 29 28 26 26 27 25 21 22 25 27 28 27 25 22 29
6 3 3 6 10 12 15 14 10 8 6 1 5 5 6 4 3 5 4 6 7 6 8 8 7 6 6 6 6 8 8 8 10 11 14 17 21 24 26 27 27 26 28 28 28 28 29 28 28 29 29 29 28 28 28 29 29 29 25 23 23 22 22 22 21 22 23 25 27 29 29 28 26 26 28 29 27 26 27 28 28 28 29 29 28 26 27 28 26 23 22 25 27 28 30 24 23
5 5 5 8 9 12 17 15 7 3 6 3 6 4 6 4 2 5 5 7 7 6 7 8 6 5 5 6 7 9 8 8 9 11 14 18 21 24 26 28 28 29 31 31 29 30 30 28 27 28 28 29 29 28 29 29 28 27 25 23 22 21 20 22 24 24 24 26 28 29 29 29 27 26 27 29 30 30 29 29 29 30 29 29 28 27 27 28 28 27 24 24 25 26 30 26 23
4 7 6 9 12 15 16 12 5 4 5 5 4 4 5 5 2 4 8 8 7 7 7 6 5 6 7 8 9 9 8 9 10 11 14 19 23 25 26 27 28 30 30 29 30 31 28 26 27 27 27 28 29 31 33 32 29 26 25 24 24 24 23 25 27 27 26 26 27 29 30 29 29 27 28 30 32 33 32 31 31 32 32 31 30 30 30 29 28 28 27 26 25 25 27 27 26
7 8 7 8 11 15 14 8 5 4 2 3 4 6 4 8 7 4 8 8 6 5 5 4 6 8 8 8 9 9 8 8 10 11 14 18 22 24 25 25 26 28 28 29 30 28 24 25 28 27 27 28 29 30 31 31 30 28 26 24 24 25 25 26 27 27 27 26 26 28 29 30 30 29 29 30 31 32 31 31 31 31 32 32 30 29 30 30 29 28 28 27 26 25 25 25 26
7 6 7 8 8 11 9 4 4 3 1 3 5 8 4 8 8 4 5 4 3 3 2 3 6 9 8 8 8 7 7 7 9 11 15 19 22 24 25 25 26 28 29 31 29 23 23 27 27 26 27 28 27 28 28 28 28 27 25 24 24 25 25 26 27 28 28 27 27 28 29 29 30 30 30 29 29 30 30 30 30 31 32 33 31 29 29 30 29 28 29 28 27 25 25 25 26
6 6 8 9 6 6 4 1 2 4 1 4 4 8 5 6 3 0 0 2 4 3 4 5 7 8 8 8 8 7 7 8 10 12 17 22 23 25 27 28 30 32 33 31 25 21 25 27 26 26 27 27 27 27 26 25 24 25 25 26 27 28 28 28 28 29 29 28 27 27 27 28 29 31 31 29 28 29 30 31 30 29 31 32 31 29 29 30 29 28 28 27 28 27 26 25 26
6 4 6 8 6 3 3 3 4 5 3 3 5 9 7 5 2 1 2 1 6 6 6 7 7 8 8 9 9 8 8 9 11 12 15 19 22 28 32 33 33 33 32 29 23 22 26 25 25 26 26 29 29 26 23 21 23 25 27 28 29 29 29 30 30 31 30 29 27 27 28 29 29 30 30 29 29 29 30 31 31 30 30 30 30 29 28 29 29 28 27 26 27 28 27 26 25
6 4 5 7 6 5 5 4 4 3 6 4 7 11 7 4 1 2 3 3 6 6 7 9 10 10 11 11 10 9 8 10 12 13 14 16 21 28 31 31 31 29 30 28 23 24 27 25 25 25 27 31 29 22 20 22 24 25 26 27 28 29 31 31 31 32 32 30 29 29 30 30 30 30 28 27 27 28 28 29 31 32 31 29 31 32 31 31 30 29 27 26 26 28 29 28 27
5 3 4 5 4 4 5 4 3 5 8 7 8 8 5 4 1 4 4 3 3 5 11 11 10 10 10 11 10 9 10 12 14 16 16 16 21 27 28 29 27 27 29 28 25 26 28 26 25 26 31 32 26 21 21 22 23 24 25 26 28 30 32 33 33 34 34 33 31 31 31 30 29 28 27 28 29 29 29 29 31 32 30 29 30 33 35 34 32 31 29 26 25 27 29 28 29
3 1 4 2 1 2 3 4 3 6 9 10 8 4 3 5 3 3 4 4 4 7 8 8 9 10 10 12 12 14 15 15 16 16 16 18 24 28 28 28 26 27 29 27 26 29 29 26 26 29 33 31 25 22 21 21 22 24 26 28 30 31 32 34 36 35 35 35 34 34 33 30 28 28 29 30 32 32 32 32 32 31 31 30 29 30 32 33 33 32 31 29 26 25 26 27 28
3 2 4 1 3 4 3 4 5 6 8 7 4 2 3 4 2 5 5 3 6 9 11 13 15 14 14 15 15 16 15 15 15 15 15 20 27 28 28 28 28 28 28 28 29 30 29 28 30 34 34 29 25 22 20 21 24 26 29 31 33 35 38 39 39 37 35 34 35 36 34 31 30 31 31 32 32 32 32 32 31 29 28 27 26 27 29 31 33 33 32 31 29 27 26 26 27
2 3 2 4 4 5 1 4 4 4 5 5 3 3 3 5 2 2 6 10 14 16 15 15 15 16 16 15 14 14 14 15 15 14 15 20 25 28 29 29 28 29 29 30 31 30 29 31 35 36 32 27 26 22 20 23 26 28 31 33 36 40 42 43 41 36 33 33 35 37 36 32 31 31 31 31 32 32 32 32 31 29 27 26 26 26 26 28 32 32 31 30 29 28 27 26 27
3 2 3 3 1 3 2 2 4 4 5 5 5 7 7 5 3 4 12 15 15 15 13 14 15 16 16 14 15 15 15 15 15 15 17 20 24 28 30 29 29 30 32 32 32 32 33 35 36 34 30 29 28 23 21 24 27 30 32 34 38 44 45 42 35 30 31 35 37 37 35 32 31 31 30 31 31 32 33 32 31 28 26 26 26 25 24 24 26 29 30 29 26 24 25 26 26
3 0 1 2 1 2 1 2 4 7 8 6 7 10 6 2 3 6 11 12 13 15 14 15 16 16 15 15 16 17 16 14 15 15 14 17 24 28 29 29 31 34 34 34 35 36 36 36 35 33 32 31 27 22 23 27 29 31 32 34 41 47 44 34 27 29 34 38 37 35 34 33 32 31 30 30 31 30 30 30 30 30 28 25 25 23 22 21 23 26 29 28 24 22 23 24 25
2 2 3 2 2 3 2 2 2 5 9 8 9 10 4 0 2 7 10 12 15 16 14 13 15 16 16 16 16 15 15 14 15 15 13 17 24 28 30 32 35 36 35 35 36 36 36 36 35 35 35 30 25 23 27 29 30 32 33 36 43 44 35 27 28 34 38 39 37 35 34 32 31 30 30 30 30 30 30 31 31 31 29 27 26 24 22 21 21 23 27 27 25 23 23 23 24
4 5 5 3 1 1 2 2 2 3 8 7 8 9 5 2 3 6 12 15 15 15 14 13 14 16 17 17 16 15 15 16 16 15 13 18 25 30 33 34 35 35 34 35 35 35 35 37 37 37 32 27 24 27 31 31 33 34 35 39 42 36 28 29 35 39 40 39 36 34 32 30 29 30 30 29 28 29 31 31 29 28 27 27 26 24 22 21 21 22 24 27 28 26 24 24 24
4 5 4 2 2 0 2 4 3 2 5 6 7 10 7 1 2 7 13 15 13 13 15 15 15 18 18 17 16 16 16 17 16 14 15 21 28 31 33 33 33 32 31 33 35 34 35 36 36 33 30 28 29 32 35 36 36 36 36 40 39 31 28 34 40 42 41 37 32 30 29 29 28 29 29 28 27 27 28 28 27 27 27 26 25 25 24 23 22 22 23 25 28 27 25 25 23
Wind_Direction
217 194 163 167 183 153 28 102 79 292 142 244 255 227 236 206 177 164 168 160 169 227 220 229 296 211 61 147 172 197 162 346 260 70 188 22 39 36 21 11 29 174 236 218 200 185 190 183 178 182 182 182 179 179 177 173 173 174 177 180 181 184 185 185 187 189 189 187 184 180 183 189 187 178 181 184 179 186 188 184 185 186 184 185 185 178 176 170 161 156 153 148 144 149 149 143 143
211 194 162 154 194 143 191 153 115 269 180 257 256 207 226 173 150 179 166 158 181 209 212 213 35 15 15 77 96 51 41 20 4 80 70 26 40 23 6 1 12 74 234 230 215 193 196 185 179 187 185 185 183 181 182 179 177 179 182 185 186 188 189 191 191 190 191 190 187 188 191 189 187 183 187 184 177 184 182 180 186 189 186 188 189 182 176 171 166 161 158 153 148 151 153 146 145
220 224 209 183 210 187 160 141 154 228 209 239 267 240 182 128 168 203 193 172 183 188 170 95 61 26 20 38 37 81 60 31 20 41 60 24 27 5 0 2 15 31 338 228 237 213 198 187 181 186 187 186 187 185 188 187 184 185 187 188 189 191 191 194 196 194 197 197 190 193 195 192 190 188 191 187 182 185 182 182 187 189 188 188 187 182 176 171 168 164 163 164 156 151 154 150 147
234 237 235 182 166 188 130 151 189 178 244 244 272 270 152 158 186 210 213 179 165 137 112 64 63 300 67 33 340 75 20 7 25 16 28 17 10 358 1 10 18 31 36 233 284 256 203 192 185 184 190 191 190 191 195 193 190 192 192 192 192 194 193 195 199 199 203 202 194 195 195 197 200 194 196 194 189 190 187 187 188 187 193 196 188 181 176 172 172 169 168 171 161 152 154 153 150
241 235 243 208 115 209 146 183 187 155 225 217 228 282 126 162 168 204 193 144 128 96 95 78 80 296 50 34 0 61 339 293 18 16 6 2 2 359 2 9 15 26 16 264 289 269 222 199 191 187 191 196 195 196 200 198 196 196 196 197 197 196 197 198 199 200 205 205 200 203 201 202 205 201 202 200 195 195 193 191 190 190 199 203 189 183 180 176 178 177 173 173 166 155 155 155 152
239 251 255 223 177 208 116 266 269 229 238 206 175 100 58 140 116 87 68 72 71 75 74 72 129 335 68 75 64 74 8 337 358 2 356 355 1 3 1 6 11 15 11 312 282 273 238 210 197 192 189 194 197 199 204 203 203 202 201 201 199 198 203 203 201 204 209 208 201 203 205 206 207 205 205 203 201 200 199 196 196 196 198 201 191 187 185 178 181 182 178 177 171 163 160 158 158
236 308 279 170 300 331 129 242 245 247 272 139 126 134 164 105 99 76 59 56 63 47 57 91 182 96 83 121 92 55 28 18 354 353 357 357 357 1 1 5 9 9 14 359 283 274 243 227 203 194 189 191 193 200 208 209 209 207 206 205 202 202 206 206 205 209 210 207 204 202 202 206 210 207 205 204 205 203 203 201 200 202 198 200 197 195 193 183 182 183 181 179 174 169 163 162 165
250 269 76 108 301 311 167 235 241 213 343 48 122 154 176 116 60 68 49 53 100 54 43 327 346 100 67 57 93 20 22 16 1 0 4 5 358 357 0 6 14 8 12 15 332 289 244 230 209 193 189 191 192 199 208 213 215 213 211 209 205 206 209 207 210 214 209 205 210 208 200 202 207 209 208 206 207 206 206 206 205 205 201 202 201 200 200 192 188 187 184 183 180 173 164 164 169
250 225 354 107 190 267 233 240 271 148 76 14 107 137 166 98 69 74 39 30 69 80 33 327 17 105 85 63 84 350 14 6 3 9 10 7 358 358 4 9 16 10 14 22 16 342 258 206 200 192 195 200 197 198 208 215 217 217 215 214 210 209 211 209 210 214 212 207 210 213 207 206 207 207 210 209 209 209 207 208 209 207 205 205 204 204 203 196 192 190 187 188 189 179 171 169 172
226 198 184 118 176 249 272 259 292 50 121 128 79 37 55 76 84 76 63 51 45 73 9 335 62 42 30 77 50 19 5 4 11 11 7 3 359 5 10 15 15 12 14 22 32 29 66 175 193 198 209 219 212 204 211 219 221 222 219 219 217 216 216 214 211 211 216 214 211 215 214 213 211 208 211 212 209 208 207 209 210 207 208 208 208 209 207 200 194 192 190 192 195 185 181 177 174
60 278 133 126 283 225 258 253 180 123 131 122 0 350 72 99 100 62 63 74 49 63 2 356 41 355 48 99 91 22 8 14 14 5 5 10 18 24 22 28 26 25 24 26 35 32 51 130 184 216 226 231 228 216 216 222 225 226 224 224 220 221 221 221 219 216 220 220 215 213 214 215 216 213 212 213 211 209 210 211 211 208 210 210 209 210 210 206 201 200 196 195 201 197 190 183 179
50 298 54 167 225 208 225 237 178 155 1 26 335 324 107 98 94 84 72 77 53 65 19 1 346 297 68 98 81 10 14 18 9 5 13 22 34 41 41 43 39 37 36 38 43 33 17 14 1 303 257 234 231 227 224 228 232 231 229 229 224 224 223 223 225 225 225 223 221 219 217 219 220 218 213 214 213 212 212 212 213 211 211 211 210 210 210 210 207 204 202 200 203 204 193 186 187
109 250 62 210 213 196 248 265 184 142 16 346 255 330 65 78 81 119 96 74 43 66 16 322 280 64 62 139 30 13 16 12 6 13 22 31 38 46 50 46 42 39 37 40 43 40 32 8 337 333 291 238 233 231 230 233 239 240 235 234 232 229 228 227 227 228 227 222 224 223 221 221 222 220 214 216 216 213 214 215 215 214 212 211 212 212 210 211 208 204 204 204 205 206 200 197 193
174 208 116 240 277 10 287 305 21 93 73 255 251 342 55 81 77 102 102 72 28 58 87 341 340 82 36 332 17 13 15 8 10 21 27 36 41 45 47 44 41 38 36 35 35 36 36 32 20 356 318 253 240 236 237 237 241 245 241 239 237 235 233 232 231 233 230 226 227 223 222 221 220 219 215 217 221 218 214 215 216 216 217 214 214 213 211 211 209 207 205 204 206 207 207 207 190
159 203 102 331 328 340 319 4 344 95 146 296 331 97 72 38 67 76 87 94 27 324 136 18 16 87 41 22 16 7 15 12 17 26 32 39 40 43 42 41 40 36 35 32 31 30 29 30 29 25 13 342 270 251 248 246 246 247 245 243 240 238 237 235 234 237 236 235 235 226 224 223 221 220 218 219 222 223 216 214 218 219 220 216 214 214 213 213 211 210 209 207 206 206 211 210 188
126 89 64 3 309 298 294 22 11 87 184 311 347 94 75 31 48 63 40 103 83 15 55 29 23 79 72 63 56 32 24 20 26 33 36 38 37 39 38 37 37 34 33 30 29 26 24 25 25 25 23 18 356 294 264 258 258 257 254 250 246 241 239 238 236 238 236 236 239 233 227 225 222 223 223 222 220 222 221 217 219 221 221 219 217 216 215 214 212 211 209 208 206 206 211 204 189
64 73 57 332 296 232 245 5 11 168 258 314 355 41 91 60 52 84 56 73 89 56 62 58 51 72 71 71 63 46 35 29 33 36 37 36 35 35 34 33 32 31 30 28 28 25 24 23 20 20 20 21 17 9 344 309 278 267 263 260 258 251 245 242 237 238 237 234 237 237 234 231 226 225 224 222 218 219 222 219 218 220 220 219 220 219 217 216 214 212 209 208 208 209 209 198 193
61 80 103 296 235 204 208 176 211 124 318 342 10 30 95 101 56 125 76 54 73 74 67 69 66 63 64 68 64 53 43 38 37 38 37 36 35 35 32 30 30 28 26 26 26 25 24 22 20 18 16 16 16 18 15 7 351 308 274 263 262 261 257 250 243 238 238 236 235 237 239 239 237 233 225 219 217 216 220 220 218 218 218 220 222 221 217 218 217 213 210 209 208 209 209 201 195
94 137 111 257 218 226 115 112 34 27 335 352 37 48 71 32 332 103 84 44 58 74 61 62 67 57 58 63 64 58 50 45 40 39 38 37 37 37 34 30 29 27 24 24 23 24 24 22 21 20 17 15 13 13 11 10 11 3 337 301 274 264 262 258 253 245 241 237 235 238 240 242 243 241 232 220 215 214 217 219 219 218 218 219 222 223 219 218 218 215 213 211 208 211 214 205 190
147 131 75 260 211 46 30 74 40 18 353 22 60 61 55 11 352 51 107 87 57 80 84 72 80 70 63 59 63 60 55 52 47 45 43 41 41 41 38 34 31 28 25 24 23 23 23 23 21 21 20 18 16 14 10 7 6 6 5 357 330 293 275 263 260 255 249 242 237 237 240 243 244 244 241 232 223 219 218 220 224 222 221 220 219 224 223 219 218 216 214 210 206 213 220 212 196
36 114 147 251 155 79 16 61 40 0 6 44 94 75 60 24 22 60 136 103 63 109 134 122 116 102 88 69 65 63 59 57 54 52 49 45 42 42 42 40 37 32 29 27 24 20 19 21 19 19 21 22 20 16 11 8 5 1 360 1 357 345 319 288 268 259 254 249 243 238 238 241 245 245 243 238 234 231 226 224 228 227 222 220 218 221 225 221 218 217 212 208 207 212 219 216 206
47 139 158 216 88 112 247 98 46 7 28 57 90 94 111 168 39 52 138 134 171 168 142 131 124 115 108 94 78 68 64 62 58 56 55 51 44 41 40 40 38 32 30 28 24 20 16 16 17 17 17 20 20 18 16 11 7 4 358 353 351 352 349 336 308 278 261 253 248 242 238 239 243 246 242 237 234 232 232 230 230 228 223 221 219 219 223 223 219 217 213 209 209 213 217 218 214
99 276 111 55 85 128 203 157 52 45 77 80 125 137 125 103 72 44 112 135 167 158 144 133 126 121 109 98 88 74 69 68 64 61 59 57 50 43 38 37 36 31 29 27 23 22 17 11 12 13 12 15 16 15 15 13 12 7 1 356 349 344 342 345 343 324 292 268 254 247 242 240 241 243 241 236 233 231 232 232 229 229 227 224 222 221 223 224 219 216 216 214 212 214 217 218 217
102 242 308 73 101 134 167 159 130 106 115 158 145 129 135 134 143 123 116 144 155 145 142 133 128 119 107 97 91 82 75 71 69 68 64 61 56 48 42 38 36 30 27 24 19 19 18 8 5 8 7 9 10 9 7 6 8 6 3 360 354 347 339 334 335 337 328 303 274 255 246 243 243 242 242 237 233 231 231 231 228 228 228 226 225 225 224 224 219 215 215 214 212 215 217 216 216
69 192 275 122 118 152 158 147 149 131 131 141 105 111 170 161 136 130 153 162 155 149 145 138 128 113 106 101 97 90 79 72 69 68 66 62 58 51 44 39 34 30 25 20 14 12 14 7 0 2 2 1 3 3 360 356 357 358 359 359 354 349 343 335 328 323 324 325 309 279 260 252 247 242 242 240 235 231 230 231 229 226 227 226 224 223 223 223 219 215 216 214 212 214 216 216 216
273 235 301 56 144 166 161 161 172 165 157 129 103 117 172 149 116 122 182 173 165 159 152 148 130 118 117 111 106 102 91 82 74 68 67 63 57 50 41 35 31 28 21 17 13 7 6 5 358 356 356 355 354 356 354 349 346 347 350 352 349 345 341 336 331 324 316 315 316 309 294 275 260 248 242 241 238 234 232 230 228 226 225 224 222 220 219 221 220 216 216 215 213 215 216 217 218
259 267 337 16 167 181 174 178 192 176 166 153 141 165 180 163 138 200 203 178 166 160 159 154 132 130 128 120 117 108 101 92 85 77 69 60 55 50 40 32 27 22 17 13 10 5 2 0 355 350 350 349 347 349 347 342 337 335 339 341 340 338 335 331 329 328 321 313 308 305 306 302 292 274 258 251 244 239 237 231 227 224 222 222 220 218 216 217 220 218 216 215 214 216 216 217 217
293 332 9 318 319 298 215 174 202 154 140 206 156 152 171 187 249 205 186 177 164 161 168 159 137 140 133 125 124 111 105 94 90 84 71 58 52 52 43 33 23 15 13 9 3 1 1 357 352 346 344 343 342 341 339 335 328 325 327 328 330 331 328 324 321 321 319 315 309 302 298 299 304 301 284 273 260 247 244 238 231 224 220 219 219 218 215 215 218 218 218 217 216 217 217 217 218
328 68 61 311 344 328 287 204 193 146 207 232 128 71 216 217 243 178 164 174 166 162 171 165 145 145 135 126 122 115 111 99 92 87 80 65 52 47 40 31 22 12 6 3 359 358 357 352 348 342 338 336 334 333 331 327 318 314 315 315 319 322 320 315 313 314 310 306 305 302 298 293 292 297 298 296 283 262 252 246 240 233 226 219 218 218 216 214 215 216 217 217 216 215 215 216 217
340 29 92 337 8 330 297 309 174 130 207 200 109 342 269 227 214 163 162 175 166 167 176 169 153 146 138 133 125 121 114 103 93 88 81 65 52 43 32 22 15 9 358 353 356 357 352 346 342 337 335 331 328 327 325 321 312 304 305 305 306 312 314 306 302 306 306 300 297 297 295 293 290 290 292 296 297 283 267 255 245 240 234 225 220 217 215 213 213 214 214 213 213 213 213 214 213
353 351 47 26 28 317 310 323 352 34 241 168 116 286 277 249 194 174 174 174 172 178 183 170 159 149 140 139 130 124 117 106 94 83 73 57 47 35 25 15 7 3 353 348 350 349 343 340 338 335 334 331 328 325 321 319 311 299 297 300 299 303 307 301 297 299 302 299 295 293 290 290 290 290 291 290 291 291 282 266 252 243 237 231 224 219 215 212 212 213 213 211 210 211 212 212 211
18 16 344 354 26 319 316 322 338 351 290 183 140 273 279 267 197 184 177 175 179 181 187 171 158 153 140 138 130 124 113 100 87 75 63 43 34 28 20 12 4 355 346 341 339 340 338 336 335 332 333 331 328 326 322 320 312 299 292 295 295 296 301 300 298 298 300 300 296 293 290 289 289 289 292 292 289 287 285 277 263 252 243 236 228 223 218 213 211 211 212 211 209 209 209 210 210
5 41 324 314 349 329 319 317 298 337 327 302 271 263 284 290 196 183 178 179 187 182 185 168 152 149 131 120 116 108 94 83 70 61 48 24 23 24 15 5 354 345 339 334 333 337 338 337 334 331 332 331 331 331 327 323 316 304 293 291 290 291 297 300 301 300 299 299 299 297 293 291 290 290 292 294 294 289 283 280 271 261 250 243 235 227 222 217 213 210 210 210 209 208 207 207 208
328 25 338 294 321 324 316 313 308 352 346 312 296 260 277 292 198 176 187 185 197 189 179 168 146 126 109 96 90 87 81 76 51 38 31 23 24 15 3 354 344 338 335 333 334 338 338 335 332 332 333 335 336 335 332 326 318 310 300 292 285 288 292 293 297 300 299 300 301 302 297 294 294 293 292 293 296 294 288 281 274 267 254 248 243 233 224 219 215 212 209 209 209 207 205 204 205
289 309 317 298 315 314 305 311 315 337 330 306 305 285 283 296 199 178 203 192 200 198 172 157 132 111 102 87 80 75 69 71 42 28 25 22 16 3 353 348 344 341 339 337 337 338 335 332 331 334 337 340 339 336 332 326 319 312 304 295 288 288 288 290 294 299 302 302 301 302 298 296 299 299 296 293 294 295 295 289 281 275 264 253 246 238 230 222 218 216 211 208 207 207 206 205 205
268 269 254 273 299 287 281 297 306 331 328 293 288 285 287 297 258 203 210 198 196 193 150 132 119 106 99 86 81 71 59 41 22 23 23 18 10 2 357 354 352 348 343 339 336 334 333 333 336 340 341 340 338 336 332 326 319 311 306 303 298 295 295 298 299 298 301 303 301 297 294 293 296 300 300 297 294 294 296 293 287 282 275 264 249 242 236 228 222 218 214 210 205 204 206 204 203
302 278 247 275 285 283 291 299 306 349 345 286 279 285 284 291 277 224 198 196 187 162 122 111 104 95 91 85 76 66 57 26 23 23 20 15 8 3 1 356 352 347 341 338 336 337 340 343 344 343 341 338 337 337 333 326 318 309 304 302 301 302 308 310 309 305 303 304 299 290 290 296 294 296 300 300 297 294 296 294 288 283 279 275 260 248 242 237 230 222 217 212 205 200 201 202 200
356 344 335 320 298 298 298 291 309 4 352 293 289 296 295 292 284 237 177 176 168 134 114 101 92 87 83 78 66 52 39 20 24 24 17 10 4 1 359 355 349 343 340 340 340 343 346 346 344 341 338 338 338 338 332 323 317 312 306 300 304 313 317 318 316 314 311 309 299 285 284 297 298 297 299 303 300 291 290 292 290 285 280 278 274 262 249 244 242 235 226 219 211 203 200 198 193
4 7 27 344 312 312 296 266 316 360 336 295 296 302 298 291 294 262 132 120 85 88 98 95 89 80 68 69 60 38 27 14 14 19 12 5 0 0 357 351 348 345 343 343 343 343 342 340 339 337 337 338 338 335 329 321 317 314 307 301 312 320 320 321 318 316 315 312 303 288 281 288 299 300 297 302 302 289 284 289 291 291 286 280 279 276 266 250 244 243 238 230 222 214 208 199 192
6 4 17 321 308 326 302 291 327 327 268 267 295 307 296 295 352 56 73 83 82 80 85 85 85 80 67 66 58 39 26 10 5 11 6 1 358 356 351 347 346 345 343 341 339 338 336 334 335 336 337 337 336 333 328 322 316 311 306 309 321 323 322 323 321 319 316 311 307 301 292 289 295 297 294 297 301 294 289 290 293 295 295 290 284 279 276 266 249 242 240 236 229 221 218 204 196
333 312 30 312 307 307 287 298 325 321 282 244 308 323 305 307 65 81 71 86 92 83 84 79 70 70 61 56 50 33 26 18 12 7 1 357 353 348 346 344 343 341 338 335 333 332 331 330 333 335 335 333 332 332 327 322 317 310 309 316 321 323 323 321 319 318 316 311 307 305 302 298 294 291 291 292 293 294 295 296 298 298 298 297 292 284 277 273 263 247 238 237 234 225 221 214 203
329 275 254 292 304 303 296 307 334 334 310 345 40 352 298 319 86 129 101 88 89 77 84 81 65 60 54 53 42 22 22 24 15 5 356 351 346 342 342 341 341 338 334 330 327 329 329 329 332 334 333 332 330 330 328 325 322 316 313 312 311 314 315 313 312 310 310 309 306 304 303 301 297 288 287 290 290 290 291 293 295 296 297 295 292 290 283 275 269 259 245 238 238 234 226 221 211
333 267 274 297 306 304 299 311 335 324 289 310 47 15 293 325 74 140 121 95 91 74 73 77 65 52 48 49 34 18 19 18 6 357 352 348 344 343 341 340 339 336 332 331 331 333 332 333 338 339 338 336 333 331 330 328 326 323 320 317 314 312 309 308 308 306 307 308 305 302 300 298 296 289 285 288 288 287 287 287 289 290 292 292 289 288 285 281 272 265 258 246 242 241 232 224 216
299 277 316 318 310 301 297 309 310 260 286 320 41 31 302 308 344 120 113 99 89 70 62 66 50 38 42 39 25 17 17 9 357 352 350 346 343 340 337 336 337 336 335 334 334 334 333 337 340 339 337 334 330 326 325 324 323 322 321 319 316 313 311 308 307 305 304 305 304 302 300 297 294 291 288 286 282 281 281 281 282 283 284 286 287 283 280 282 278 268 262 254 246 245 239 229 220
271 281 316 306 298 294 294 306 288 266 323 324 350 20 332 298 320 50 101 102 92 75 65 60 43 39 41 31 17 13 10 1 355 348 342 338 335 333 331 332 334 335 335 331 327 327 332 337 336 333 332 329 325 323 322 320 319 318 317 315 311 308 307 307 306 306 304 304 304 300 299 297 293 290 287 285 281 277 275 274 275 276 277 279 281 281 276 275 276 272 264 256 249 245 242 236 226
280 299 317 300 288 287 289 280 276 311 97 251 336 23 1 297 317 21 81 94 114 108 83 56 40 38 34 17 5 1 357 354 348 338 334 332 330 329 329 331 333 333 333 329 325 328 334 334 331 329 329 327 325 324 322 320 320 321 320 318 314 310 309 308 306 305 304 303 301 297 296 295 292 288 284 282 281 278 275 272 272 272 273 274 272 274 275 273 271 271 267 258 251 247 243 240 233
331 353 331 314 295 284 296 255 308 8 259 234 8 22 341 300 312 336 298 135 148 119 49 21 19 27 19 2 352 349 349 346 340 335 333 329 327 331 335 335 334 333 332 329 326 330 333 330 328 327 327 327 324 322 322 326 331 332 331 328 325 321 319 315 310 306 305 302 297 294 294 293 291 287 282 279 280 280 279 275 271 268 269 270 268 267 268 271 270 269 268 262 253 248 245 240 236
18 11 329 330 326 323 358 359 23 20 299 278 5 353 319 281 271 245 257 155 129 99 50 17 13 17 3 352 347 346 347 341 337 333 330 328 332 340 342 338 334 331 330 326 323 328 329 327 326 325 326 326 322 319 324 331 336 335 333 331 328 325 323 319 313 309 306 302 299 297 295 293 291 286 282 280 279 280 282 279 273 269 269 270 267 264 262 263 265 265 265 264 257 251 246 241 237
21 3 357 1 348 348 352 340 0 329 288 312 349 338 313 260 254 195 214 186 147 107 47 23 16 8 354 349 346 342 342 336 336 336 336 338 341 342 340 333 329 328 327 324 321 326 327 325 325 323 323 323 319 318 325 331 334 334 333 331 329 327 323 319 314 309 307 303 300 298 294 290 288 284 282 282 283 283 281 279 276 273 273 271 268 267 265 260 258 260 260 259 258 255 249 242 237
3 8 38 20 344 341 322 304 324 288 282 309 333 327 301 293 302 183 193 168 129 44 28 22 11 359 347 344 342 340 341 340 342 344 343 342 339 336 332 327 325 325 325 323 322 326 326 323 324 322 321 321 316 314 322 328 331 331 331 330 328 326 324 320 314 309 306 304 300 297 293 288 284 281 282 282 284 285 281 278 278 276 274 271 270 271 269 260 254 255 256 254 253 254 253 247 241
318 176 98 67 247 260 265 261 294 293 293 307 319 305 269 307 341 128 118 90 60 23 20 13 0 355 350 349 350 349 347 346 345 342 338 335 333 331 328 325 324 324 324 325 325 327 325 322 322 321 320 318 313 313 320 324 326 328 328 328 327 325 321 318 313 307 304 302 300 297 292 288 284 283 284 284 283 282 279 277 275 273 272 272 273 274 270 262 254 251 250 250 250 251 252 249 246
280 142 78 18 215 198 231 241 246 275 292 297 296 227 231 307 2 98 98 73 25 11 10 7 1 359 357 354 352 348 343 341 340 336 333 332 331 330 327 325 324 325 328 329 328 327 324 321 321 320 318 315 312 313 318 321 325 327 328 329 327 324 320 315 310 305 302 302 301 298 293 288 287 287 284 283 283 280 277 276 271 268 270 272 273 274 272 267 258 249 245 247 250 250 251 251 249
328 45 347 263 196 151 198 282 268 279 291 283 283 271 294 327 335 57 20 3 4 3 3 4 360 358 357 351 344 340 337 337 336 333 330 330 330 329 327 326 327 331 332 330 328 325 322 321 320 318 315 314 312 311 314 321 326 328 329 329 327 323 317 311 306 302 302 305 305 300 293 287 287 288 285 283 283 279 275 272 267 265 268 270 272 273 274 271 261 251 244 245 248 251 253 253 251
71 21 277 255 86 102 122 297 297 300 286 274 292 296 308 324 296 359 7 359 353 352 357 1 358 357 352 341 337 335 335 336 332 329 327 328 331 328 326 328 333 335 333 329 328 326 324 322 319 317 314 312 309 307 314 323 328 330 329 328 326 322 314 306 303 304 308 309 306 300 293 286 286 287 285 285 284 279 274 269 264 265 270 271 271 271 272 273 265 254 248 246 248 253 255 256 255
94 279 284 102 20 310 335 323 299 299 294 288 298 301 303 293 290 355 359 346 343 350 360 2 355 351 343 337 337 335 336 336 330 328 327 329 330 328 330 336 338 336 332 330 329 327 324 322 319 316 313 310 307 309 321 327 328 328 326 324 324 320 312 305 306 311 314 310 304 300 295 285 282 285 285 285 284 278 273 270 267 268 268 267 267 266 268 272 267 259 252 247 248 251 252 256 258
10 354 9 70 166 238 277 304 283 289 291 294 306 306 303 116 4 3 351 343 352 356 359 358 348 343 341 339 338 336 338 336 330 327 326 329 331 333 339 341 338 334 331 329 329 326 325 323 320 316 313 311 313 319 326 326 325 324 320 320 320 315 308 308 313 315 314 308 301 300 298 289 282 284 286 285 282 276 273 273 271 267 264 263 264 263 265 267 265 259 254 250 250 250 248 252 257
346 347 338 327 305 282 281 257 207 270 287 298 308 300 304 57 43 10 356 354 1 359 353 350 344 341 341 339 338 337 336 331 326 325 328 334 337 339 340 337 333 331 329 329 328 327 327 326 323 320 319 321 322 324 325 323 322 319 316 317 316 308 304 311 314 313 310 304 298 298 302 299 290 286 285 285 283 280 277 273 268 265 265 266 265 263 264 264 261 260 258 254 251 246 243 246 251
343 323 291 252 241 63 319 284 251 249 282 295 295 294 305 19 56 11 3 0 3 358 349 344 342 341 340 339 337 335 332 327 324 329 338 340 339 337 334 332 329 328 327 329 328 328 328 328 326 325 324 322 321 322 322 321 319 315 313 313 309 303 307 312 311 308 304 299 297 303 309 310 304 294 287 285 285 284 278 271 266 263 263 265 265 265 265 261 258 258 259 255 249 241 237 239 242